METAR Formatted Surface Weather Observation
Issued by NWS Charleston, WV

Home | Current Version | Previous Version | Text Only | Print | Product List | Glossary On
Versions: 1 2 3 4 5 6 7 8 9 10 11 12 13 14 15 16 17 18 19 20 21 22 23 24 25 26 27 28 29 30 31
000
SAUS41 KRLX 280555
MTRCRW
METAR KCRW 280554Z 03004KT 10SM FEW120 M09/M14 A3064 RMK AO2 SLP392
4/001 T10941144 11067 21106 51004 $



USA.gov is the U.S. government's official web portal to all federal, state and local government web resources and services.